DW4238 Weather Reports


time (UTC)temp
F
wind
direction
speed
knots
gust
knots
rain 1hr
in
rain 24hr
in
rain mn
in
humidity
%
barometer
mb
20210723151322 83 198 6.1 8.7 0.00 0.40 0.00 98 1020.9
20210723150318 83 202 7.0 12.2 0.00 0.40 0.00 100 1020.9
20210723145309 83 182 7.8 10.4 0.00 0.40 0.00 100 1020.8
20210723144324 83 183 6.1 8.7 0.00 0.40 0.00 100 1020.8
20210723143311 82 189 6.1 12.2 0.00 0.40 0.00 100 1020.6
20210723142326 82 165 7.0 13.0 0.00 0.40 0.00 100 1020.6
20210723141314 82 168 7.0 9.6 0.00 0.40 0.00 100 1020.6
20210723140308 82 167 5.2 10.4 0.00 0.40 0.00 100 1020.5
20210723135316 82 175 4.3 7.8 0.00 0.40 0.00 100 1020.5
20210723134311 81 160 4.3 7.0 0.00 0.40 0.00 100 1020.5
20210723133316 80 162 3.5 6.1 0.00 0.40 0.00 100 1020.4
20210723132320 80 149 1.7 4.3 0.00 0.40 0.00 100 1020.4
20210723131325 79 159 3.5 6.1 0.00 0.40 0.00 100 1020.3
20210723130321 79 148 3.5 6.1 0.00 0.40 0.00 100 1020.2
20210723125326 78 144 3.5 7.0 0.00 0.40 0.00 100 1020.3
20210723124320 78 138 3.5 6.1 0.00 0.40 0.00 100 1020.2
20210723123326 78 146 1.7 3.5 0.00 0.40 0.00 100 1020.1
20210723122321 77 148 2.6 4.3 0.00 0.40 0.00 100 1020.0
20210723121310 77 148 2.6 4.3 0.00 0.40 0.00 100 1020.1
20210723120324 77 138 1.7 3.5 0.00 0.40 0.00 100 1019.9
20210723115312 77 146 2.6 3.5 0.00 0.40 0.00 100 1019.9
20210723114327 77 150 0.0 2.6 0.00 0.40 0.00 100 1019.7
20210723113315 77 150 1.7 2.6 0.00 0.40 0.00 100 1019.6
20210723112327 77 150 2.6 4.3 0.00 0.40 0.40 100 1019.5
20210723111314 76 150 2.6 4.3 0.00 0.40 0.40 100 1019.3
20210723110327 76 141 2.6 6.1 0.00 0.40 0.40 100 1019.2
20210723105315 76 144 2.6 4.3 0.00 0.40 0.40 100 1019.2
20210723104309 76 138 0.0 0.0 0.00 0.40 0.40 100 1019.2
20210723103317 76 138 0.0 0.0 0.00 0.40 0.40 100 1019.2
20210723102316 76 138 0.0 0.0 0.00 0.40 0.40 100 1019.2
20210723101321 76 134 1.7 3.5 0.00 0.40 0.40 100 1019.3
20210723100316 76 139 2.6 3.5 0.00 0.40 0.40 100 1019.3
20210723095323 76 150 1.7 4.3 0.00 0.40 0.40 100 1019.3
20210723094317 76 159 2.6 4.3 0.00 0.40 0.40 100 1019.2
20210723093324 76 159 0.0 0.0 0.00 0.40 0.40 100 1019.3
20210723092319 76 159 0.0 0.0 0.00 0.40 0.40 100 1019.3
20210723091332 76 159 0.0 2.6 0.00 0.40 0.40 100 1019.2
20210723090321 76 159 2.6 2.6 0.00 0.40 0.40 100 1019.3
20210723085334 76 159 1.7 5.2 0.00 0.40 0.40 100 1019.3
20210723084322 76 159 3.5 4.3 0.00 0.40 0.40 100 1019.3
20210723083310 76 159 3.5 5.2 0.00 0.40 0.40 100 1019.3
20210723082325 76 159 3.5 5.2 0.00 0.40 0.40 100 1019.4
20210723081313 76 150 2.6 5.2 0.00 0.40 0.40 100 1019.4
20210723080327 76 150 2.6 5.2 0.00 0.40 0.40 100 1019.4
20210723075315 76 150 2.6 4.3 0.00 0.40 0.40 100 1019.4
20210723074309 76 150 3.5 5.2 0.00 0.40 0.40 100 1019.4
20210723073317 76 150 2.6 6.1 0.00 0.40 0.40 100 1019.3
20210723072312 76 148 2.6 5.2 0.00 0.40 0.40 100 1019.3
20210723071320 76 128 0.0 0.0 0.00 0.40 0.40 100 1019.3
20210723070316 76 128 0.0 0.0 0.01 0.40 0.40 100 1019.4
20210723065330 76 127 0.0 0.0 0.01 0.40 0.40 100 1019.4
20210723064318 76 127 0.0 0.0 0.01 0.40 0.40 100 1019.3
20210723063310 76 127 0.0 0.0 0.01 0.40 0.40 100 1019.4
20210723062325 76 127 0.0 0.0 0.01 0.40 0.40 100 1019.3
20210723061313 76 127 0.0 2.6 0.01 0.40 0.40 100 1019.3
20210723060328 76 127 1.7 3.5 0.00 0.39 0.39 100 1019.2
20210723055315 76 127 1.7 3.5 0.00 0.39 0.39 100 1019.2
20210723054310 76 113 1.7 3.5 0.00 0.39 0.39 100 1019.1
20210723053318 76 121 2.6 3.5 0.00 0.39 0.39 100 1019.1
20210723052313 76 147 2.6 4.3 0.00 0.39 0.39 100 1019.1
20210723051328 76 138 0.0 3.5 0.00 0.39 0.39 100 1019.1
20210723050316 76 139 1.7 3.5 0.00 0.39 0.39 100 1019.1
20210723045330 76 132 0.0 2.6 0.00 0.39 0.39 100 1019.1
20210723044318 76 157 0.0 0.0 0.00 0.39 0.39 100 1019.1
20210723043332 76 141 0.0 4.3 0.00 0.39 0.39 100 1019.1
20210723042316 76 142 0.9 3.5 0.00 0.39 0.39 100 1019.0
20210723041331 76 119 2.6 4.3 0.00 0.39 0.39 100 1019.0
20210723040317 76 146 1.7 4.3 0.00 0.39 0.39 100 1019.1
20210723035331 76 146 2.6 6.1 0.00 0.39 0.39 100 1018.9
20210723034319 76 149 3.5 4.3 0.00 0.39 0.39 100 1018.9
20210723033334 75 155 2.6 5.2 0.00 0.39 0.39 100 1018.8
20210723032322 75 146 2.6 6.1 0.00 0.39 0.39 100 1018.8
20210723031318 75 148 0.0 6.1 0.00 0.39 0.39 100 1018.9
20210723030323 75 150 3.5 6.1 0.00 0.39 0.39 100 1018.9
20210723025317 75 146 3.5 7.0 0.00 0.39 0.39 100 1018.9
20210723024323 75 149 3.5 5.2 0.00 0.39 0.39 100 1018.9
20210723023322 75 142 3.5 6.1 0.00 0.39 0.39 100 1019.0
20210723022310 75 130 4.3 7.0 0.01 0.39 0.39 100 1019.1
20210723021325 75 146 3.5 6.1 0.01 0.39 0.39 100 1019.3
20210723020312 75 126 0.9 4.3 0.02 0.39 0.39 100 1019.3
20210723015327 75 137 0.0 0.0 0.03 0.39 0.39 100 1019.5
20210723014313 75 165 0.0 0.0 0.04 0.39 0.39 100 1019.2
20210723013328 75 165 0.0 2.6 0.05 0.39 0.39 100 1019.2
20210723012315 75 163 1.7 5.2 0.05 0.38 0.38 100 1019.2
20210723011310 75 179 0.0 5.2 0.07 0.37 0.37 100 1019.1
20210723010316 75 188 4.3 7.0 0.08 0.37 0.37 100 1019.2
20210723005311 75 194 3.5 7.0 0.08 0.36 0.36 100 1019.2
20210723004319 75 209 4.3 8.7 0.18 0.35 0.35 100 1019.2
20210723003313 75 169 4.3 7.8 0.32 0.34 0.34 100 1019.3
20210723002322 75 219 3.5 7.0 0.32 0.33 0.33 100 1019.3
20210723001313 76 229 2.6 6.1 0.30 0.30 0.30 97 1019.2
20210723000321 76 243 4.3 7.8 0.29 0.29 0.29 97 1019.4
20210722235315 76 300 6.1 13.0 0.28 0.28 0.28 97 1019.4
20210722234324 77 246 11.3 19.1 0.15 0.15 0.15 93 1019.3
20210722233319 82 212 6.1 11.3 0.01 0.01 0.01 81 1018.6
20210722232333 83 180 3.5 13.9 0.01 0.04 0.01 76 1017.9
20210722231321 86 198 7.8 14.8 0.00 0.03 0.00 70 1017.9
20210722230308 88 169 7.0 10.4 0.00 0.03 0.00 67 1017.7
20210722225307 89 203 7.0 10.4 0.00 0.03 0.00 66 1017.8
20210722224316 89 178 9.6 13.9 0.00 0.03 0.00 64 1017.9
20210722223309 89 204 8.7 12.2 0.00 0.03 0.00 64 1017.7
20210722222316 88 165 11.3 14.8 0.00 0.03 0.00 67 1017.5
20210722221312 89 165 9.6 14.8 0.00 0.03 0.00 66 1017.4
20210722220320 88 130 9.6 13.0 0.00 0.03 0.00 67 1017.3
20210722215332 88 161 8.7 13.9 0.00 0.03 0.00 67 1017.4
20210722214320 89 221 5.2 8.7 0.00 0.03 0.00 63 1017.6
20210722213308 89 209 5.2 8.7 0.00 0.03 0.00 65 1017.9
20210722212323 89 186 5.2 8.7 0.00 0.03 0.00 64 1017.9
20210722211311 89 192 6.1 12.2 0.00 0.03 0.00 66 1018.1
20210722210326 90 127 6.1 11.3 0.00 0.03 0.00 68 1018.0
20210722205314 90 180 8.7 14.8 0.00 0.03 0.00 63 1018.0
20210722204307 89 184 8.7 14.8 0.00 0.03 0.00 66 1018.1
20210722203315 89 172 8.7 10.4 0.00 0.03 0.00 67 1018.1
20210722202309 88 156 6.1 9.6 0.00 0.03 0.00 69 1018.3
20210722201318 88 173 8.7 12.2 0.00 0.03 0.00 69 1018.4
20210722200313 88 206 7.8 15.6 0.00 0.03 0.00 68 1018.5
20210722195320 89 207 4.3 9.6 0.00 0.03 0.00 64 1018.6
20210722194315 89 169 6.1 8.7 0.00 0.03 0.00 68 1018.7
20210722193329 89 192 5.2 9.6 0.00 0.03 0.00 66 1018.8
20210722192317 88 172 6.1 10.4 0.00 0.03 0.00 67 1019.0
20210722191332 88 205 4.3 10.4 0.00 0.03 0.00 67 1019.0
20210722190318 88 194 5.2 9.6 0.00 0.03 0.00 66 1019.2
20210722185332 88 241 7.0 10.4 0.00 0.03 0.00 68 1019.4
20210722184320 88 219 4.3 8.7 0.00 0.03 0.00 65 1019.5
20210722183312 88 217 5.2 8.7 0.00 0.03 0.00 66 1019.6
20210722182327 88 153 5.2 10.4 0.00 0.03 0.00 66 1019.7
20210722181314 88 178 5.2 9.6 0.00 0.03 0.00 66 1019.8
20210722180310 88 226 7.0 10.4 0.00 0.03 0.00 67 1019.9
20210722175325 87 189 7.0 10.4 0.00 0.03 0.00 67 1019.9
20210722174312 87 225 6.1 10.4 0.00 0.03 0.00 68 1020.0
20210722173327 87 230 7.0 12.2 0.00 0.03 0.00 66 1020.1
20210722172315 87 191 9.6 15.6 0.00 0.03 0.00 66 1020.3
20210722171331 87 166 7.0 10.4 0.00 0.03 0.00 67 1020.3
20210722170318 87 203 7.0 11.3 0.00 0.03 0.00 66 1020.4
20210722165334 86 169 7.0 12.2 0.00 0.03 0.00 68 1020.4
20210722164322 86 229 7.0 13.9 0.00 0.03 0.00 66 1020.4
20210722163309 86 206 6.1 10.4 0.00 0.03 0.00 64 1020.4
20210722162324 85 234 7.8 11.3 0.00 0.03 0.00 65 1020.3
20210722161312 85 192 8.7 12.2 0.00 0.03 0.00 64 1020.3
20210722160326 85 219 7.0 12.2 0.00 0.03 0.00 66 1020.3
20210722155313 85 202 8.7 14.8 0.00 0.03 0.00 65 1020.2
20210722154320 85 232 7.0 9.6 0.00 0.03 0.00 67 1020.2
20210722153315 84 187 9.6 12.2 0.00 0.03 0.00 68 1020.1
20210722152323 84 232 7.0 8.7 0.00 0.03 0.00 70 1020.1